User: anonymous   Login
Location: Unspecified
(0.0000°N, 0.0000°E)
Time: 11:54:54
(UTC+00:00)
Language:

KORONAS-FOTON - Orbit

View from above orbital plane
View from above orbital plane
View from above satellite
View from above satellite

Ground track
Ground track

The orbit data is extracted from the following two-line orbital elements,

1 33504U 09003A   15241.21811705  .00001710  00000-0  93740-4 0  9991
2 33504 082.4454 166.2477 0018829 218.1280 141.8620 15.13411059361908
Epoch (UTC): 29 August 2015 05:14:05
Eccentricity: 0.0018829
inclination: 82.4454°
perigee height: 513 km
apogee height: 539 km
right ascension of ascending node: 166.2477°
argument of perigee: 218.1280°
revolutions per day: 15.13411059
mean anomaly at epoch: 141.8620°
orbit number at epoch: 36190

The dashed part of the orbit path shows where the satellite is in the earth's shadow,  

DLR